Lewistown, MT

10:20 AM MDT on March 28, 2017 (GMT -0600)
Lewistown Municipal

Weather History for KLWT - February, 2013

Change the Weather History Date:

Tuesday, February 19, 2013

  Actual Average Record
Temperature  
Mean Temperature 20 °F 26 °F  
Max Temperature 27 °F 37 °F 64 °F (1981)
Min Temperature 12 °F 15 °F -27 °F (1918)
Degree Days  
Heating Degree Days 45 39  
Month to date heating degree days 717 758  
Since 1 July heating degree days 5142 5463  
Cooling Degree Days 0 0  
Month to date cooling degree days 0 0  
Year to date cooling degree days 0 0  
Moisture  
Dew Point 13 °F    
Average Humidity 76    
Maximum Humidity 88    
Minimum Humidity 63    
Precipitation  
Precipitation 0.00 in 0.02 in 0.26 in (1949)
Month to date precipitation 0.20 0.30  
Year to date precipitation 1.19 0.87  
Snow  
Snow 0.00 in - - ()
Snow Depth 2.00 in    
Sea Level Pressure  
Sea Level Pressure 29.89 in    
Wind  
Wind Speed 11 mph (ESE)    
Max Wind Speed 21 mph    
Max Gust Speed 24 mph    
Visibility 10 miles    
Events      
T = Trace of Precipitation, MM = Missing Value Source: NWS Daily Summary

Daily Weather History Graph

Daily Weather History Graph

Search for Another Location

Airport or City:

Trip Planner

Search our weather history database for the weather conditions in past years. The results will help you decide how hot, cold, wet, or windy it might be!

Date:

Astronomy

Feb. 19, 2013 Rise Set
Actual Time 7:15 AM MST 5:48 PM MST
Civil Twilight 6:44 AM MST 6:19 PM MST
Nautical Twilight 6:08 AM MST 6:55 PM MST
Astronomical Twilight 5:33 AM MST 7:30 PM MST
Moon 12:10 PM MST (2/19) 3:01 AM MST (2/19)
Length of Visible Light 11h 35m
Length of Day
10h 33m
Waxing Gibbous, 68% of the Moon is Illuminated
Feb 19
Waxing Gibbous
Feb 25
Full
Mar 4
Last Quarter
Mar 11
New
Mar 19
First Quarter

Hourly Weather History & Observations

Time (MST) Temp. Windchill Dew Point Humidity Pressure Visibility Wind Dir Wind Speed Gust Speed Precip Events Conditions
12:54 AM 18.0 °F 3.6 °F 14.0 °F 84% 30.01 in 10.0 mi East 15.0 mph - N/A   Clear
1:54 AM 17.1 °F 3.6 °F 12.9 °F 84% 29.98 in 10.0 mi East 12.7 mph - N/A   Clear
2:54 AM 16.0 °F 2.9 °F 12.0 °F 84% 29.97 in 10.0 mi ESE 11.5 mph - N/A   Clear
3:54 AM 16.0 °F 1.7 °F 12.0 °F 84% 29.95 in 10.0 mi ESE 13.8 mph - N/A   Clear
4:54 AM 16.0 °F 2.9 °F 10.9 °F 81% 29.94 in 10.0 mi ESE 11.5 mph - N/A   Clear
5:54 AM 16.0 °F 4.4 °F 10.9 °F 81% 29.96 in 10.0 mi ESE 9.2 mph - N/A   Clear
6:54 AM 17.1 °F 10.0 °F 10.0 °F 74% 29.93 in 10.0 mi East 4.6 mph - N/A   Clear
7:54 AM 12.0 °F 5.9 °F 7.0 °F 80% 29.93 in 10.0 mi SSW 3.5 mph - N/A   Partly Cloudy
8:54 AM 17.1 °F 5.0 °F 10.9 °F 77% 29.93 in 10.0 mi WSW 10.4 mph - N/A   Overcast
9:54 AM 19.9 °F 13.4 °F 12.9 °F 74% 29.89 in 10.0 mi South 4.6 mph - N/A   Overcast
11:54 AM 26.1 °F 13.6 °F 15.1 °F 63% 29.83 in 10.0 mi ESE 16.1 mph - N/A   Mostly Cloudy
12:54 PM 26.1 °F 15.6 °F 16.0 °F 66% 29.82 in 10.0 mi ESE 11.5 mph - N/A   Overcast
1:54 PM 26.1 °F 16.2 °F 18.0 °F 71% 29.81 in 10.0 mi ESE 10.4 mph - N/A   Overcast
2:54 PM 24.1 °F 10.6 °F 18.0 °F 77% 29.80 in 10.0 mi ESE 17.3 mph - N/A   Mostly Cloudy
3:54 PM 24.1 °F 13.1 °F 18.0 °F 77% 29.81 in 10.0 mi ESE 11.5 mph - N/A   Overcast
5:54 PM 21.0 °F 8.6 °F 16.0 °F 81% 29.83 in 10.0 mi East 12.7 mph - N/A   Overcast
6:54 PM 19.9 °F 7.3 °F 15.1 °F 81% 29.83 in 10.0 mi ESE 12.7 mph - N/A   Clear
7:54 PM 19.0 °F 9.0 °F 14.0 °F 81% 29.86 in 10.0 mi ESE 8.1 mph - N/A   Clear
8:54 PM 16.0 °F 6.3 °F 12.0 °F 84% 29.86 in 10.0 mi ESE 6.9 mph - N/A   Clear
9:54 PM 15.1 °F 3.3 °F 12.0 °F 88% 29.86 in 10.0 mi ESE 9.2 mph - N/A   Clear
10:54 PM 15.1 °F 3.3 °F 10.9 °F 84% 29.86 in 10.0 mi ESE 9.2 mph - N/A   Mostly Cloudy
11:54 PM 14.0 °F 6.5 °F 10.9 °F 88% 29.86 in 10.0 mi East 4.6 mph - N/A   Scattered Clouds